When you browse on this site, cookies collect data to enhance your experience and personalize the content and advertising you see.
Visit our Privacy Policy to learn more. By continuing to use the site, you agree to this use of cookies and data.
  • In United Kingdom
  • List of Countries
  • For 7 days
  • Water Temperature
  • Satellite Maps
  • Weather Map
  • Weather Widgets
  • user-avatar
    Login

    Hourly Weather Nashavar

    Today, 21 May, Tuesday

    Time Temperature Precipitation Wind Pressure Humidity
    00:00 +31°C° 0 mm 1 mps 729 mmHg 29%
    01:00 +31°C° 0 mm 1 mps 729 mmHg 29%
    02:00 +30°C° 0 mm 1 mps 729 mmHg 29%
    03:00 +30°C° 0 mm 1 mps 728 mmHg 29%
    04:00 +29°C° 0 mm 1 mps 728 mmHg 29%
    05:00 +29°C° 0 mm 2 mps 728 mmHg 29%
    06:00 +30°C° 0 mm 2 mps 729 mmHg 26%
    07:00 +31°C° 0 mm 2 mps 729 mmHg 23%
    08:00 +32°C° 0 mm 2 mps 729 mmHg 20%
    09:00 +34°C° 0 mm 2 mps 729 mmHg 18%
    10:00 +36°C° 0 mm 2 mps 729 mmHg 17%
    11:00 +36°C° 0 mm 1 mps 729 mmHg 15%
    12:00 +37°C° 0 mm 1 mps 728 mmHg 14%
    13:00 +39°C° 0 mm 1 mps 728 mmHg 13%
    14:00 +40°C° 0 mm 1 mps 728 mmHg 13%
    15:00 +40°C° 0 mm 1 mps 727 mmHg 13%
    16:00 +40°C° 0 mm 2 mps 727 mmHg 13%
    17:00 +40°C° 0 mm 2 mps 726 mmHg 13%
    18:00 +39°C° 0 mm 1 mps 727 mmHg 16%
    19:00 +37°C° 0 mm 1 mps 727 mmHg 18%
    20:00 +36°C° 0 mm 1 mps 727 mmHg 20%
    21:00 +35°C° 0 mm 1 mps 727 mmHg 22%
    22:00 +34°C° 0 mm 1 mps 727 mmHg 23%
    23:00 +34°C° 0 mm 1 mps 728 mmHg 24%

    Tomorrow, 22 May, Wednesday

    Time Temperature Precipitation Wind Pressure Humidity
    00:00 +33°C° 0 mm 1 mps 727 mmHg 25%
    01:00 +32°C° 0 mm 1 mps 727 mmHg 26%
    02:00 +32°C° 0 mm 1 mps 727 mmHg 27%
    03:00 +31°C° 0 mm 1 mps 727 mmHg 27%
    04:00 +31°C° 0 mm 2 mps 727 mmHg 27%
    05:00 +30°C° 0 mm 2 mps 726 mmHg 27%
    06:00 +31°C° 0 mm 2 mps 727 mmHg 26%
    07:00 +32°C° 0 mm 2 mps 727 mmHg 24%
    08:00 +34°C° 0 mm 2 mps 727 mmHg 22%
    09:00 +35°C° 0 mm 2 mps 727 mmHg 20%
    10:00 +36°C° 0 mm 2 mps 727 mmHg 18%
    11:00 +37°C° 0 mm 2 mps 727 mmHg 16%
    12:00 +38°C° 0 mm 2 mps 726 mmHg 16%
    13:00 +39°C° 0 mm 2 mps 726 mmHg 15%
    14:00 +40°C° 0 mm 2 mps 726 mmHg 15%
    15:00 +39°C° 0.1 mm 2 mps 725 mmHg 16%
    16:00 +39°C° 0.1 mm 3 mps 725 mmHg 16%
    17:00 +39°C° 0.1 mm 3 mps 725 mmHg 17%
    18:00 +38°C° 0 mm 3 mps 725 mmHg 20%
    19:00 +37°C° 0 mm 2 mps 726 mmHg 22%
    20:00 +35°C° 0 mm 2 mps 726 mmHg 24%
    21:00 +34°C° 0.3 mm 3 mps 726 mmHg 30%
    22:00 +33°C° 0.3 mm 4 mps 726 mmHg 36%
    23:00 +32°C° 0.3 mm 5 mps 726 mmHg 42%

    Day after tomorrow, 23 May, Thursday

    Time Temperature Precipitation Wind Pressure Humidity
    00:00 +30°C° 0 mm 5 mps 726 mmHg 43%
    01:00 +30°C° 0 mm 4 mps 726 mmHg 43%
    02:00 +30°C° 0 mm 4 mps 726 mmHg 44%
    03:00 +29°C° 0 mm 3 mps 726 mmHg 44%
    04:00 +29°C° 0 mm 3 mps 725 mmHg 44%
    05:00 +29°C° 0 mm 3 mps 725 mmHg 45%
    06:00 +29°C° 0.2 mm 3 mps 726 mmHg 44%
    07:00 +29°C° 0.2 mm 3 mps 726 mmHg 44%
    08:00 +29°C° 0.2 mm 2 mps 726 mmHg 44%
    09:00 +29°C° 0.1 mm 3 mps 727 mmHg 42%
    10:00 +30°C° 0.1 mm 4 mps 727 mmHg 39%
    11:00 +32°C° 0.1 mm 5 mps 727 mmHg 37%
    12:00 +33°C° 0 mm 5 mps 727 mmHg 35%
    13:00 +33°C° 0 mm 5 mps 727 mmHg 33%
    14:00 +34°C° 0 mm 5 mps 726 mmHg 31%
    15:00 +34°C° 0.2 mm 4 mps 726 mmHg 31%
    16:00 +33°C° 0.2 mm 3 mps 726 mmHg 31%
    17:00 +32°C° 0.2 mm 2 mps 725 mmHg 31%
    18:00 +32°C° 0 mm 1 mps 726 mmHg 32%
    19:00 +31°C° 0 mm 1 mps 726 mmHg 34%
    20:00 +31°C° 0 mm 1 mps 726 mmHg 36%
    21:00 +30°C° 0 mm 1 mps 726 mmHg 36%
    22:00 +30°C° 0 mm 2 mps 726 mmHg 36%
    23:00 +30°C° 0 mm 2 mps 727 mmHg 36%

    24 May, Friday

    Time Temperature Precipitation Wind Pressure Humidity
    00:00 +30°C° 0.2 mm 2 mps 727 mmHg 40%
    01:00 +29°C° 0.2 mm 2 mps 726 mmHg 43%
    02:00 +29°C° 0.2 mm 2 mps 726 mmHg 46%
    03:00 +28°C° 0.1 mm 2 mps 726 mmHg 48%
    04:00 +28°C° 0.1 mm 2 mps 726 mmHg 49%
    05:00 +27°C° 0.1 mm 2 mps 726 mmHg 51%
    06:00 +28°C° 0.1 mm 2 mps 726 mmHg 49%
    07:00 +28°C° 0.1 mm 2 mps 726 mmHg 47%
    08:00 +29°C° 0.1 mm 2 mps 727 mmHg 45%
    09:00 +30°C° 0 mm 3 mps 727 mmHg 41%
    10:00 +33°C° 0 mm 3 mps 727 mmHg 36%
    11:00 +34°C° 0 mm 3 mps 727 mmHg 32%
    12:00 +35°C° 0 mm 2 mps 727 mmHg 30%
    13:00 +35°C° 0 mm 2 mps 727 mmHg 28%
    14:00 +35°C° 0 mm 1 mps 726 mmHg 27%
    15:00 +36°C° 0.1 mm 2 mps 726 mmHg 27%
    16:00 +36°C° 0.1 mm 2 mps 726 mmHg 27%
    17:00 +36°C° 0.1 mm 2 mps 725 mmHg 28%
    18:00 +35°C° 0.4 mm 2 mps 726 mmHg 31%
    19:00 +34°C° 0.4 mm 2 mps 726 mmHg 34%
    20:00 +32°C° 0.4 mm 2 mps 726 mmHg 37%
    21:00 +32°C° 0.5 mm 2 mps 726 mmHg 39%
    22:00 +31°C° 0.5 mm 2 mps 726 mmHg 41%
    23:00 +30°C° 0.5 mm 2 mps 727 mmHg 43%

    25 May, Saturday

    Time Temperature Precipitation Wind Pressure Humidity
    00:00 +30°C° 0.5 mm 2 mps 726 mmHg 45%
    01:00 +29°C° 0.5 mm 2 mps 726 mmHg 47%
    02:00 +29°C° 0.5 mm 2 mps 725 mmHg 48%
    03:00 +28°C° 0 mm 1 mps 725 mmHg 49%
    04:00 +28°C° 0 mm 1 mps 725 mmHg 50%
    05:00 +28°C° 0 mm 1 mps 725 mmHg 50%
    06:00 +28°C° 0 mm 2 mps 725 mmHg 46%
    07:00 +29°C° 0 mm 2 mps 726 mmHg 41%
    08:00 +30°C° 0 mm 2 mps 726 mmHg 37%
    09:00 +32°C° 0 mm 2 mps 726 mmHg 33%
    10:00 +34°C° 0 mm 3 mps 726 mmHg 28%
    11:00 +35°C° 0 mm 3 mps 726 mmHg 24%
    12:00 +36°C° 0 mm 2 mps 725 mmHg 22%
    13:00 +37°C° 0 mm 2 mps 725 mmHg 20%
    14:00 +37°C° 0 mm 1 mps 724 mmHg 19%
    15:00 +37°C° 0.1 mm 1 mps 724 mmHg 19%
    16:00 +37°C° 0.1 mm 1 mps 724 mmHg 20%
    17:00 +37°C° 0.1 mm 1 mps 724 mmHg 20%
    18:00 +36°C° 0.3 mm 1 mps 724 mmHg 24%
    19:00 +36°C° 0.3 mm 2 mps 724 mmHg 27%
    20:00 +35°C° 0.3 mm 2 mps 725 mmHg 30%
    21:00 +34°C° 0.3 mm 2 mps 725 mmHg 30%
    22:00 +34°C° 0.3 mm 2 mps 725 mmHg 30%
    23:00 +34°C° 0.3 mm 2 mps 726 mmHg 31%

    26 May, Sunday

    Time Temperature Precipitation Wind Pressure Humidity
    00:00 +32°C° 0.3 mm 2 mps 726 mmHg 30%
    01:00 +31°C° 0.3 mm 3 mps 725 mmHg 29%
    02:00 +30°C° 0.3 mm 3 mps 725 mmHg 29%
    03:00 +30°C° 0.2 mm 3 mps 725 mmHg 29%
    04:00 +29°C° 0.2 mm 3 mps 725 mmHg 30%
    05:00 +28°C° 0.2 mm 3 mps 725 mmHg 31%
    06:00 +29°C° 0 mm 3 mps 726 mmHg 27%
    07:00 +30°C° 0 mm 3 mps 726 mmHg 24%
    08:00 +31°C° 0 mm 3 mps 726 mmHg 20%
    09:00 +33°C° 0 mm 4 mps 726 mmHg 19%
    10:00 +34°C° 0 mm 4 mps 726 mmHg 18%
    11:00 +36°C° 0 mm 4 mps 726 mmHg 16%
    12:00 +36°C° 0 mm 4 mps 726 mmHg 16%
    13:00 +37°C° 0 mm 3 mps 725 mmHg 16%
    14:00 +37°C° 0 mm 2 mps 725 mmHg 16%
    15:00 +37°C° 0 mm 2 mps 725 mmHg 15%
    16:00 +37°C° 0 mm 2 mps 725 mmHg 15%
    17:00 +38°C° 0 mm 2 mps 725 mmHg 14%
    18:00 +37°C° 0 mm 2 mps 725 mmHg 15%
    19:00 +36°C° 0 mm 3 mps 726 mmHg 16%
    20:00 +35°C° 0 mm 3 mps 726 mmHg 18%
    21:00 +34°C° 0 mm 4 mps 726 mmHg 18%
    22:00 +33°C° 0 mm 4 mps 726 mmHg 19%
    23:00 +32°C° 0 mm 5 mps 726 mmHg 20%
    Show more